Regional Weather Roundup
Issued by NWS

Home | Current Version | Previous Version | Graphics & Text | Print | Product List | Glossary On
Versions: 1 2 3 4 5 6 7 8 9 10 11 12 13 14 15 16 17 18 19 20 21 22 23 24 25 26 27 28 29 30 31 32 33 34 35 36 37 38 39 40 41 42 43 44 45 46 47 48 49 50
000
ASUS43 KIND 220209
RWRIN

WEATHER ROUNDUP FOR INDIANA
NATIONAL WEATHER SERVICE INDIANAPOLIS IN
900 PM EST TUE NOV 21 2017

NOTE: "FAIR" INDICATES FEW OR NO CLOUDS BELOW 12,000 FEET WITH NO
SIGNIFICANT WEATHER AND/OR OBSTRUCTIONS TO VISIBILITY.

* - STATION DOES NOT REPORT WEATHER SUCH AS PRECIPITATION OR FOG.

+ - STATION NOT QUALITY CONTROLLED BY THE NATIONAL WEATHER SERVICE.
    USE DATA WITH CAUTION...ESPECIALLY DEWPOINT AND RELATIVE
    HUMIDITY OBSERVATIONS.

INZ001>003-010>013-019-020-220300-
NORTHWEST INDIANA

CITY           SKY/WX    TMP DP  RH WIND       PRES   REMARKS
GARY /AIRPORT/ CLOUDY    34  18  51 NW8       30.13R WCI  27
KNOX *+        CLOUDY    32  27  80 NW7       30.10R WCI  26
LA PORTE +     CLOUDY    33  22  64 NW13      30.10R WCI  24
MONTICELLO +   PTCLDY    30  24  79 NW10      30.11R WCI  21
RENSSELAER +   CLEAR     30  23  74 NW5       30.13S WCI  25
VALPARAISO     CLOUDY    35  22  58 NW9       30.11R WCI  28

$$

LMZ046-743>745-220300-
SOUTHERN LAKE MICHIGAN

STATION/POSITION TIME  TEMP    WIND        PRES    WAVE
                       AIR SEA DIR/SP/G            HT
                 (UTC) (F)     (DEG/KT/KT) (MB)    (FT)
BURNS HARBOR     0141   36     320/ 14     1020.0R
MICHIGAN CITY    0140   34     320/ 21/ 29   N/A

$$

INZ004-005-014>016-021>024-220300-
NORTH CENTRAL INDIANA

CITY           SKY/WX    TMP DP  RH WIND       PRES   REMARKS
ELKHART        CLOUDY    34  25  69 NW9       30.06R WCI  26
GOSHEN         CLOUDY    34  25  69 NW10      30.05R WCI  26
LOGANSPORT +   CLOUDY    32  27  80 NW7       30.11R WCI  26
PERU/GRISSOM   CLOUDY    33  28  81 NW13      30.08R WCI  24
ROCHESTER +    CLOUDY    36  28  75 NW14      30.09R WCI  27
SOUTH BEND     CLOUDY    33  24  69 NW17      30.08R WCI  22
WARSAW +       CLOUDY    34  28  80 NW12G20   30.06R WCI  25

$$

INZ006>009-017-018-025>027-220300-
NORTHEAST INDIANA

CITY           SKY/WX    TMP DP  RH WIND       PRES   REMARKS
AUBURN +       CLOUDY    36  28  75 W12       30.03R WCI  27
FORT WAYNE     CLOUDY    37  31  78 NW13G20   30.04R WCI  29
HUNTINGTON +   CLOUDY    34  30  85 NW12      30.05R WCI  25
KENDALLVILLE + CLOUDY    34  28  77 NW8       30.03R WCI  27

$$

INZ028-029-035-036-043>045-051>053-220300-
WEST CENTRAL INDIANA

CITY           SKY/WX    TMP DP  RH WIND       PRES   REMARKS
CRAWFORDSVL +  CLOUDY    31  25  78 NW13        N/A  WCI  21
GREENCASTLE +  CLOUDY    32  28  86 NW12G20   30.12R WCI  23
LAFAYETTE      CLEAR     31  24  75 NW10      30.13R WCI  22
TERRE HAUTE    CLOUDY    34  24  67 NW14G22   30.15R WCI  25

$$

INZ030>032-037>040-046>048-054>057-064-065-220300-
CENTRAL INDIANA

CITY           SKY/WX    TMP DP  RH WIND       PRES   REMARKS
CP ATTERBURY + CLOUDY    36  34  93 NW20      30.09R WCI  25
COLUMBUS       LGT RAIN  37  30  75 NW16G24   30.07R WCI  28
FISHERS *+     PTCLDY    32  32 100 NW15      30.09  WCI  22
FRANKFORT +    PTCLDY    34  28  76 NW16      30.12R WCI  24
INDIANAPOLIS   CLOUDY    34  29  82 NW16      30.10R WCI  24
-EAGLE CREEK   CLOUDY    35  30  82 NW14G22   30.09R WCI  26
KOKOMO +       CLOUDY    33  27  78 NW14      30.09R WCI  23
MARION +       MOCLDY    33  30  86 NW15G23   30.07R WCI  23
MT COMFORT *+  CLOUDY    34  34 100 NW15      30.08R WCI  24
SHELBYVILLE    FLURRIES  36  31  82 NW13G21   30.07R WCI  27
ZIONSVILLE +   MOCLDY    32  29  90 NW15G21   30.09R WCI  22

$$

INZ033-034-041-042-049-050-058-059-220300-
EAST CENTRAL INDIANA

CITY           SKY/WX    TMP DP  RH WIND       PRES   REMARKS
MUNCIE         CLOUDY    36  30  79 NW18G24   30.06R WCI  26
RICHMOND +     DRIZZLE   37  36  93 NW17      30.03R WCI  28

$$

INZ060-061-067>069-081>083-085>088-220300-
SOUTHWEST INDIANA

CITY           SKY/WX    TMP DP  RH WIND       PRES   REMARKS
EVANSVILLE     CLOUDY    47  32  56 N17G25    30.11R
HUNTINGBURG +  CLOUDY    46  31  55 N16G29    30.08R
WASHINGTON +   CLOUDY    40  29  65 NW15G28   30.11R WCI  32

$$

INZ062-063-066-070>080-084-089>092-220300-
SOUTH CENTRAL AND SOUTHEAST INDIANA

CITY           SKY/WX    TMP DP  RH WIND       PRES   REMARKS
BEDFORD +      DRIZZLE   45  32  61 NW13G20   30.06R
BLOOMINGTON    CLOUDY    39  30  70 NW9G17    30.09R WCI  33
MADISON *+     CLOUDY    50  32  50 NW6       30.04R
NORTH VERNON + LGT RAIN  43  32  65 NW13G20   30.06R
SEYMOUR +      LGT RAIN  46  36  66 N15G21    30.05R

$$





USA.gov is the U.S. government's official web portal to all federal, state and local government web resources and services.